Location: Bowman Observatory
(41.0326°N, 73.6210°W)
Time: 06:42:42
(UTC-04:00)

Cosmos 2297 - Visible Passes

Search period start: 31 October 2014 00:00
Search period end: 09 November 2014 23:00
Orbit: 837 x 858 km, 71.0° (Epoch: 30 October)

Date Brightness Start Highest point End Pass type
(mag) Time Alt. Az. Time Alt. Az. Time Alt. Az.
31 Oct 4.8 18:55:57 10° NW 19:01:20 48° WSW 19:06:41 10° S visible
01 Nov 4.8 18:42:40 10° NW 18:48:05 49° WSW 18:53:27 10° S visible
02 Nov 4.8 17:29:24 10° NW 17:34:50 50° WSW 17:40:12 10° S visible
03 Nov 4.8 17:16:08 10° NNW 17:21:34 51° WSW 17:26:58 10° S visible
06 Nov 5.1 05:57:40 10° S 06:03:05 46° ESE 06:08:29 10° NE visible
07 Nov 5.1 05:44:26 10° S 05:49:49 45° ESE 05:55:13 10° NE visible
08 Nov 5.1 05:31:12 10° S 05:36:34 44° ESE 05:41:56 10° NE visible
09 Nov 5.0 05:17:58 10° S 05:23:18 43° ESE 05:28:39 10° NE visible
